This demonstration page uses our WeatherBlox Daily Observations layout. Learn more.

Left ArrowRight Arrow

39.51506, -84.39828

Hourly Observations for March 23, 2015

Temp ( °F °C ) Dew Point ( °F °C ) Humidity (%) Winds ( mph kmh ) Pressure ( in mb ) Visibility ( mi km ) Precip ( " mm )
12:15 am 00:15 Partly Cloudy 37 3 20 -6.7 49 49 NE 8 13 30.24 1024 10 16 N/A
12:35 am 00:35 Mostly Cloudy 39 4 19 -7.1 45 45 NE 12 19 30.24 1024 10 16 N/A
12:55 am 00:55 Cloudy 38 3.4 18 -7.6 45 45 NE 9 15 30.24 1024 10 16 N/A
1:15 am 01:15 Partly Cloudy 37 2.6 17 -8.2 45 45 NE 14 22 30.24 1024 10 16 N/A
1:35 am 01:35 Clear 37 2.6 16 -8.9 43 43 NE 13 20 30.24 1024 10 16 N/A
1:55 am 01:55 Clear 37 2.6 15 -9.5 41 41 ENE 13 20 30.24 1024 10 16 N/A
2:15 am 02:15 Clear 35 1.6 13 -10.6 40 40 ENE 9 15 30.27 1025 10 16 N/A
2:35 am 02:35 Clear 34 1.2 13 -10.6 41 41 NE 8 13 30.27 1025 10 16 N/A
2:55 am 02:55 Clear 34 1.2 11 -11.9 37 37 NE 8 13 30.27 1025 10 16 N/A
3:15 am 03:15 Clear 34 1.2 11 -11.6 38 38 NE 8 13 30.27 1025 10 16 N/A
3:35 am 03:35 Clear 34 1.2 12 -11.2 39 39 NE 9 15 30.27 1025 10 16 N/A
3:55 am 03:55 Clear 34 1.2 11 -11.5 39 39 NE 9 15 30.27 1025 10 16 N/A
4:15 am 04:15 Mostly Cloudy 34 1.2 9 -12.8 35 35 ENE 10 17 30.24 1024 10 16 N/A
4:35 am 04:35 Mostly Cloudy 34 1.2 9 -12.9 34 34 ENE 8 13 30.24 1024 10 16 N/A
4:55 am 04:55 Cloudy 34 1.2 8 -13.6 33 33 ENE 12 19 30.24 1024 10 16 N/A
5:15 am 05:15 Mostly Cloudy 34 1.2 9 -12.8 35 35 ENE 10 17 30.24 1024 10 16 N/A
5:35 am 05:35 Mostly Cloudy 34 1.2 8 -13.2 34 34 ENE 10 17 30.24 1024 10 16 N/A
5:55 am 05:55 Cloudy 34 1.2 8 -13.4 33 33 ENE 9 15 30.24 1024 10 16 N/A
6:15 am 06:15 Cloudy 34 1.2 10 -12.5 36 36 NE 8 13 30.27 1025 10 16 N/A
6:35 am 06:35 Cloudy 34 1.2 7 -13.7 32 32 ENE 9 15 30.27 1025 10 16 N/A
6:55 am 06:55 Cloudy 34 1.2 7 -14 32 32 E 14 22 30.27 1025 10 16 N/A
7:15 am 07:15 Mostly Cloudy 34 1.2 6 -14.2 31 31 ENE 9 15 30.27 1025 10 16 N/A
7:35 am 07:35 Mostly Cloudy 34 1.2 8 -13.5 33 33 E 12 19 30.27 1025 10 16 N/A
7:55 am 07:55 Partly Cloudy 34 1.2 8 -13.3 33 33 E 8 13 30.27 1025 10 16 N/A
8:15 am 08:15 Sunny 34 1.2 4 -15.3 28 28 E 14 22 30.30 1026 10 16 N/A
8:35 am 08:35 Sunny 34 1.2 6 -14.2 31 31 E 12 19 30.30 1026 10 16 N/A
8:55 am 08:55 Sunny 34 1.2 7 -13.9 32 32 E 8 13 30.30 1026 10 16 N/A
9:15 am 09:15 Sunny 34 1.2 8 -13.3 33 33 E 9 15 30.27 1025 10 16 N/A
9:35 am 09:35 Sunny 35 1.8 9 -12.9 33 33 E 14 22 30.27 1025 10 16 N/A
9:55 am 09:55 Sunny 37 2.6 8 -13.3 30 30 E 17 28 30.27 1025 10 16 N/A
10:15 am 10:15 Sunny 37 2.6 7 -13.7 29 29 E 13 20 30.27 1025 10 16 N/A
10:35 am 10:35 Sunny 39 3.8 8 -13.5 27 27 ENE 14 22 30.30 1026 10 16 N/A
10:55 am 10:55 Partly Cloudy 39 4 8 -13.6 27 27 ENE 15 24 30.27 1025 10 16 N/A
11:15 am 11:15 Mostly Cloudy 39 4 6 -14.2 25 25 E 13 20 30.27 1025 10 16 N/A
11:35 am 11:35 Cloudy 40 4.6 6 -14.5 24 24 E 13 20 30.27 1025 10 16 N/A
11:55 am 11:55 Mostly Cloudy 41 5.2 6 -14.2 23 23 E 9 15 30.27 1025 10 16 N/A
12:15 pm 12:15 Cloudy 40 4.7 6 -14.7 23 23 E 9 15 30.27 1025 10 16 N/A
12:55 pm 12:55 Cloudy 41 5 8 -13.6 25 25 E 13 20 30.24 1024 10 16 N/A
1:35 pm 13:35 Cloudy 42 5.5 9 -12.7 26 26 E 9 15 30.21 1023 10 16 N/A
1:55 pm 13:55 Mostly Cloudy 44 6.8 8 -13.1 23 23 ENE 14 22 30.21 1023 10 16 N/A
2:15 pm 14:15 Cloudy 42 5.8 10 -12.2 26 26 ENE 13 20 30.21 1023 10 16 N/A
2:35 pm 14:35 Cloudy 42 5.5 10 -12.1 27 27 ENE 13 20 30.18 1022 10 16 N/A
2:55 pm 14:55 Cloudy 41 4.8 10 -12.5 28 28 NE 9 15 30.24 1024 10 16 N/A
3:15 pm 15:15 Cloudy 42 5.5 10 -12.5 26 26 ENE 10 17 30.18 1022 10 16 N/A
3:35 pm 15:35 Cloudy 41 5.1 10 -12.4 27 27 NE 13 20 30.21 1023 10 16 N/A
3:55 pm 15:55 Cloudy 40 4.7 9 -12.7 27 27 NE 14 22 30.21 1023 10 16 N/A
4:15 pm 16:15 Cloudy 40 4.6 9 -12.9 27 27 NE 14 22 30.21 1023 10 16 N/A
4:35 pm 16:35 Cloudy with Light Snow 39 4 15 -9.4 37 37 NE 14 22 30.21 1023 5 8 N/A
4:55 pm 16:55 Cloudy 39 4 17 -8.5 40 40 ENE 13 20 30.21 1023 7 11 N/A
5:15 pm 17:15 Cloudy 37 2.9 16 -8.7 43 43 E 14 22 30.18 1022 10 16 N/A
5:35 pm 17:35 Cloudy 37 2.6 23 -4.8 59 59 ENE 13 20 30.18 1022 10 16 N/A
5:55 pm 17:55 Cloudy 37 2.5 23 -5.1 58 58 NE 15 24 30.21 1023 10 16 N/A
6:15 pm 18:15 Cloudy with Light Snow 34 1.2 23 -4.8 65 65 ENE 16 26 30.18 1022 5 8 N/A
6:35 pm 18:35 Cloudy with Light Snow 34 1.2 26 -3.6 71 71 NE 13 20 30.21 1023 4 6 N/A
6:55 pm 18:55 Cloudy 34 1.2 28 -2.3 78 78 NE 12 19 30.21 1023 10 16 N/A
7:15 pm 19:15 Cloudy 34 1.2 28 -2 79 79 NE 13 20 30.24 1024 10 16 N/A
7:35 pm 19:35 Cloudy 34 1.2 29 -1.8 81 81 NE 10 17 30.24 1024 10 16 N/A
7:55 pm 19:55 Cloudy 34 1.2 29 -1.7 81 81 NE 10 17 30.24 1024 10 16 N/A
8:15 pm 20:15 Cloudy 34 1.2 29 -1.6 82 82 NE 9 15 30.24 1024 10 16 N/A
8:35 pm 20:35 Cloudy 34 1.2 29 -1.8 81 81 NE 8 13 30.24 1024 10 16 N/A
8:55 pm 20:55 Cloudy 34 1.2 28 -2 79 79 ENE 10 17 30.24 1024 10 16 N/A
9:15 pm 21:15 Cloudy 34 1.2 28 -2 79 79 ENE 12 19 30.24 1024 10 16 N/A
9:35 pm 21:35 Cloudy 34 1.2 29 -1.9 80 80 ENE 12 19 30.24 1024 10 16 N/A
9:55 pm 21:55 Cloudy 34 1.2 29 -1.8 81 81 ENE 12 19 30.24 1024 10 16 N/A
10:15 pm 22:15 Cloudy 34 1.2 29 -1.8 81 81 ENE 10 17 30.24 1024 10 16 N/A
10:35 pm 22:35 Cloudy 34 1.2 29 -1.8 81 81 ENE 12 19 30.24 1024 10 16 N/A
10:55 pm 22:55 Cloudy 34 1.2 28 -2 79 79 ENE 9 15 30.24 1024 10 16 N/A
11:15 pm 23:15 Cloudy 34 1.2 28 -2 79 79 ENE 12 19 30.24 1024 10 16 N/A
11:35 pm 23:35 Cloudy 34 1.2 28 -2 79 79 ENE 8 13 30.24 1024 10 16 N/A
11:55 pm 23:55 Cloudy 34 1.2 28 -2 79 79 ENE 8 13 30.24 1024 10 16 N/A

Powered by AerisWeather